[[{"header":{"parameterUnit":"m.s-1","parameterCategory":1,"la1":30.2991,"la2":30.254,"lo1":-89.0895,"lo2":-89.0444,"dy":0.0017,"dx":0.0017,"nx":28,"ny":28,"refTime":"2025-05-24T03:00:00:Z","depth":0,"parameterNumber":2,"parameterNumberName":"U-component_of_WINDS"},"data":[0,0,0,0,0,0,0,0,0,0,0,0,0,0,0,0,0,0,0,0,0,0,0,0,0,0,0,0,0,0,0,0,0,0,0,0,0,0,0,0,0,0,0,0,0,0,0,0,0,0,0,0,0,0,0,0,0,0,-0.5339,-0.5338,0,-0.5312,-0.5311,-0.5311,-0.5281,-0.5281,-0.528,-0.528,-0.5251,-0.525,-0.525,0,0,0,0,0,0,0,0,0,0,0,0,0,-0.5363,-0.5363,-0.5339,-0.5338,-0.5338,-0.5312,-0.5311,-0.5311,-0.5281,-0.5281,-0.528,-0.528,-0.5251,-0.525,-0.525,0,0,0,0,0,0,0,0,0,0,0,0,0,-0.5346,-0.5363,-0.5339,-0.532,-0.5318,-0.5312,-0.5311,-0.5311,-0.5281,-0.5281,-0.528,-0.5279,-0.5251,-0.525,-0.525,-0.5259,0,0,-0.5248,-0.5248,0,0,0,0,0,0,0,0,-0.5347,-0.5345,-0.5323,-0.5321,-0.5319,-0.5299,-0.5309,-0.5293,-0.5281,-0.5295,-0.528,-0.5279,-0.5267,-0.5265,-0.5261,-0.5258,-0.5257,-0.5248,-0.5248,-0.5247,-0.5247,0,0,0,0,0,0,0,-0.5348,-0.5346,-0.5328,-0.5323,-0.532,-0.5313,-0.5309,-0.5306,-0.5285,-0.5294,-0.5292,-0.5289,-0.5266,-0.5262,-0.5261,-0.5256,-0.5248,-0.5247,-0.5247,-0.5247,-0.5258,-0.5259,0,0,0,0,0,0,-0.5353,-0.5347,-0.5329,-0.5327,-0.5332,-0.5313,-0.5309,-0.5306,-0.5285,-0.5281,-0.529,-0.5288,-0.5263,-0.5261,-0.5259,-0.5269,-0.5247,-0.5247,-0.5246,-0.5258,-0.5259,-0.5259,0,0,0,0,0,0,-0.5353,-0.5351,-0.533,-0.5337,-0.5333,-0.5313,-0.531,-0.5306,-0.5302,-0.5282,-0.5278,-0.529,-0.5263,-0.526,-0.5259,-0.5267,-0.5247,-0.5246,-0.5257,-0.5258,-0.5259,-0.5288,0,0,0,0,0,0,-0.5354,-0.5352,-0.5355,-0.5337,-0.5333,-0.5331,-0.531,-0.5306,-0.5301,-0.5299,-0.5281,-0.5277,-0.5262,-0.526,-0.5259,-0.5266,-0.5246,-0.5256,-0.5257,-0.5259,-0.5286,-0.529,-0.5293,0,0,0,0,0,-0.5355,-0.5364,-0.5356,-0.5354,-0.5337,-0.5332,-0.5329,-0.5312,-0.5302,-0.5306,-0.5292,-0.5278,-0.5267,-0.5261,-0.5259,-0.5266,-0.5256,-0.5257,-0.5259,-0.5285,-0.5289,-0.5293,0,0,0,0,0,0,-0.5384,-0.5362,-0.5352,-0.5355,-0.5346,-0.5327,-0.533,-0.5317,-0.531,-0.5308,-0.5286,-0.5282,-0.5284,-0.5275,-0.5268,-0.5274,-0.5259,-0.526,-0.528,-0.5284,-0.5287,-0.5289,-0.5245,0,0,0,0,0,-0.5391,-0.5388,-0.5369,-0.5374,-0.5369,-0.5351,-0.5348,-0.5335,-0.5324,-0.532,-0.5306,-0.5296,-0.529,-0.5286,-0.528,-0.5285,-0.528,-0.5289,-0.5292,-0.5295,-0.5296,-0.5298,-0.5301,-0.5264,-0.5264,-0.5264,0,0,-0.5404,-0.5392,-0.5392,-0.5379,-0.537,-0.5368,-0.5347,-0.5346,-0.5343,-0.5319,-0.5318,-0.5308,-0.5294,-0.5297,-0.5297,-0.5289,-0.5305,-0.5297,-0.5299,-0.5299,-0.53,-0.5303,-0.5306,-0.5265,-0.5265,-0.5265,0,0,-0.5428,-0.5419,-0.5422,-0.5414,-0.54,-0.5388,-0.5389,-0.5372,-0.5364,-0.5363,-0.5344,-0.5341,-0.5331,-0.5322,-0.5317,-0.5338,-0.5323,-0.5336,-0.5353,-0.5355,-0.5358,-0.536,-0.5367,-0.537,-0.5337,-0.5337,-0.5337,0,-0.5447,-0.5443,-0.5425,-0.5425,-0.542,-0.5398,-0.5401,-0.5393,-0.5378,-0.5375,-0.5367,-0.5354,-0.5344,-0.5343,-0.5348,-0.5345,-0.5344,-0.5338,-0.5359,-0.5361,-0.5363,-0.537,-0.5373,-0.5339,-0.5339,-0.5338,-0.5338,0,-0.5467,-0.5464,-0.5468,-0.5455,-0.545,-0.5451,-0.5433,-0.5431,-0.5419,-0.5407,-0.5406,-0.5392,-0.5383,-0.5382,-0.537,-0.538,-0.5375,-0.5363,-0.5348,-0.5369,-0.5375,-0.5377,-0.5341,-0.534,-0.534,-0.534,0,0,-0.5508,-0.5485,-0.5487,-0.548,-0.5464,-0.5461,-0.5461,-0.5452,-0.545,-0.5441,-0.544,-0.5432,-0.5421,-0.5415,-0.5402,-0.5404,-0.542,-0.5391,-0.5391,-0.5397,-0.543,-0.5438,-0.5442,-0.5411,-0.5412,-0.5412,-0.5431,0,-0.5529,-0.5528,-0.5512,-0.5515,-0.5512,-0.5492,-0.5492,-0.5482,-0.5471,-0.5466,-0.5454,-0.5449,-0.5435,-0.5431,-0.5432,-0.5418,-0.5427,-0.5417,-0.5409,-0.5409,-0.5413,-0.5445,-0.5454,-0.5472,-0.5433,-0.5433,-0.5433,0,-0.5553,-0.5545,-0.5549,-0.5532,-0.553,-0.5531,-0.5521,-0.5517,-0.5505,-0.5497,-0.549,-0.5475,-0.5473,-0.546,-0.5456,-0.545,-0.5446,-0.5439,-0.5439,-0.5438,-0.5422,-0.5443,-0.5478,-0.548,-0.5437,-0.5436,-0.5436,0,-0.5582,-0.5573,-0.5573,-0.5568,-0.5549,-0.555,-0.5542,-0.5529,-0.5525,-0.5516,-0.5513,-0.5504,-0.5499,-0.5493,-0.5476,-0.5467,-0.5475,-0.5459,-0.5467,-0.5468,-0.5469,-0.5469,-0.5503,-0.5468,-0.5468,-0.5467,-0.5467,0,-0.5607,-0.561,-0.5586,-0.5587,-0.5589,-0.557,-0.5573,-0.5563,-0.5552,-0.5549,-0.5531,-0.5529,-0.5507,-0.5503,-0.549,-0.5489,-0.5487,-0.548,-0.5476,-0.5481,-0.5482,-0.5478,-0.5476,-0.5468,-0.5468,-0.5468,-0.5468,0,-0.564,-0.5624,-0.5624,-0.5606,-0.5601,-0.5604,-0.5588,-0.5588,-0.5576,-0.5573,-0.5571,-0.5552,-0.5546,-0.5529,-0.5518,-0.5509,-0.5511,-0.5505,-0.5516,-0.5513,-0.5522,-0.5521,-0.5554,-0.5557,-0.552,-0.5521,-0.5521,0,-0.5657,-0.5658,-0.5641,-0.5638,-0.5631,-0.5627,-0.5622,-0.5604,-0.56,-0.5586,-0.5587,-0.558,-0.5572,-0.5563,-0.5548,-0.5539,-0.5532,-0.5544,-0.5531,-0.5536,-0.5532,-0.5532,-0.5531,-0.5547,-0.5548,-0.5548,-0.5548,0,-0.5688,-0.568,-0.5675,-0.5666,-0.5662,-0.5654,-0.5645,-0.5644,-0.5624,-0.562,-0.5613,-0.5608,-0.5597,-0.5589,-0.5578,-0.5569,-0.5555,-0.5553,-0.5554,-0.5559,-0.5565,-0.5561,-0.5523,-0.5552,-0.5552,-0.5551,-0.5551,-0.5551,-0.5713,-0.5713,-0.5701,-0.5695,-0.5687,-0.5679,-0.5678,-0.5666,-0.566,-0.565,-0.564,-0.5634,-0.5622,-0.5606,-0.5598,-0.5593,-0.5585,-0.5587,-0.5588,-0.5588,-0.559,-0.5566,-0.5591,-0.559,-0.559,-0.559,-0.559,0,-0.5743,-0.5734,-0.5729,-0.5718,-0.5713,-0.5701,-0.5691,-0.5688,-0.5683,-0.5673,-0.5666,-0.5659,-0.5651,-0.5636,-0.5626,-0.5625,-0.5619,-0.5624,-0.5623,-0.5621,-0.5598,-0.5597,-0.5629,-0.5629,-0.5629,-0.5629,-0.5629,-0.5629,-0.5758,-0.5758,-0.5749,-0.5744,-0.5735,-0.573,-0.5725,-0.5718,-0.5709,-0.5702,-0.5696,-0.5686,-0.5673,-0.5663,-0.5655,-0.5651,-0.5648,-0.5655,-0.5648,-0.5627,-0.5623,-0.5619,-0.5619,-0.5655,-0.5655,-0.5672,-0.5672,-0.5672]},{"header":{"parameterUnit":"m.s-1","parameterCategory":1,"la1":30.2991,"la2":30.254,"lo1":-89.0895,"lo2":-89.0444,"dy":0.0017,"dx":0.0017,"nx":28,"ny":28,"refTime":"2025-05-24T03:00:00:Z","depth":0,"parameterNumber":3,"parameterNumberName":"V-component_of_WINDS"},"data":[0,0,0,0,0,0,0,0,0,0,0,0,0,0,0,0,0,0,0,0,0,0,0,0,0,0,0,0,0,0,0,0,0,0,0,0,0,0,0,0,0,0,0,0,0,0,0,0,0,0,0,0,0,0,0,0,0,0,2.7475,2.7475,0,2.7488,2.7488,2.7488,2.7433,2.7432,2.743,2.7429,2.744,2.7441,2.7443,0,0,0,0,0,0,0,0,0,0,0,0,0,2.74,2.7402,2.7475,2.7475,2.7475,2.7488,2.7488,2.7488,2.7434,2.7432,2.743,2.7428,2.7439,2.7441,2.7443,0,0,0,0,0,0,0,0,0,0,0,0,0,2.7425,2.7402,2.7475,2.745,2.7447,2.7488,2.7488,2.7488,2.7434,2.7432,2.7429,2.7427,2.7438,2.7441,2.7444,2.7508,0,0,2.7452,2.7453,0,0,0,0,0,0,0,0,2.7424,2.7428,2.7453,2.7451,2.7449,2.7457,2.7466,2.7495,2.7435,2.7439,2.7429,2.7426,2.7447,2.7449,2.7457,2.7509,2.7509,2.7452,2.7454,2.7455,2.7456,0,0,0,0,0,0,0,2.7422,2.7427,2.748,2.7453,2.7451,2.7437,2.7438,2.7471,2.7456,2.7439,2.7435,2.7437,2.7446,2.7454,2.7456,2.7509,2.7452,2.7454,2.7456,2.7457,2.7615,2.7618,0,0,0,0,0,0,2.7424,2.7426,2.7479,2.748,2.743,2.744,2.7441,2.7457,2.7456,2.7453,2.7439,2.7434,2.7451,2.7453,2.7457,2.7532,2.7455,2.7457,2.7459,2.7613,2.7616,2.7619,0,0,0,0,0,0,2.7422,2.7429,2.7479,2.7452,2.7457,2.7444,2.7462,2.7458,2.7467,2.7456,2.7453,2.7451,2.7449,2.7453,2.7496,2.7532,2.7459,2.7461,2.761,2.7614,2.7617,2.7684,0,0,0,0,0,0,2.7421,2.7429,2.7454,2.7453,2.7459,2.7519,2.7464,2.746,2.7472,2.7466,2.7466,2.7464,2.7447,2.7492,2.7499,2.7534,2.7463,2.7606,2.7611,2.7616,2.7679,2.769,2.77,0,0,0,0,0,2.7418,2.7472,2.7456,2.7462,2.749,2.7521,2.7524,2.7505,2.7475,2.7499,2.7493,2.7464,2.7527,2.7497,2.7504,2.7541,2.7604,2.761,2.7616,2.7674,2.7688,2.7699,0,0,0,0,0,0,2.7476,2.7471,2.7453,2.7508,2.7516,2.7512,2.7542,2.752,2.7535,2.7529,2.7503,2.7504,2.7551,2.755,2.7517,2.7603,2.756,2.7568,2.7602,2.7615,2.7626,2.7625,2.7465,0,0,0,0,0,2.7496,2.7523,2.7516,2.7565,2.757,2.7556,2.7569,2.7553,2.7559,2.7562,2.7558,2.7565,2.7586,2.76,2.7619,2.7678,2.7678,2.7707,2.7717,2.7726,2.7733,2.7764,2.7777,2.7638,2.7638,2.7638,0,0,2.7536,2.7536,2.7555,2.7577,2.7581,2.7609,2.7559,2.759,2.761,2.7566,2.7607,2.7605,2.761,2.7662,2.7684,2.7662,2.7771,2.7733,2.774,2.7742,2.7771,2.7785,2.7796,2.7642,2.7641,2.764,0,0,2.7623,2.7626,2.7668,2.7673,2.768,2.767,2.768,2.768,2.7677,2.7718,2.7686,2.7709,2.7746,2.7751,2.7759,2.7849,2.7823,2.7855,2.791,2.7941,2.7952,2.7961,2.7993,2.8005,2.7862,2.7862,2.7862,0,2.7672,2.7713,2.7692,2.7725,2.7736,2.7699,2.774,2.7746,2.7759,2.7766,2.7742,2.7788,2.7789,2.7841,2.7864,2.7871,2.7881,2.7855,2.7952,2.7961,2.797,2.8,2.8013,2.7866,2.7866,2.7865,2.7865,0,2.7772,2.7801,2.7834,2.7848,2.7862,2.79,2.7884,2.79,2.7884,2.7876,2.7918,2.7918,2.7937,2.7948,2.7931,2.7998,2.7984,2.7956,2.7912,2.7988,2.8016,2.8027,2.7872,2.7871,2.7869,2.7868,0,0,2.7897,2.7899,2.7911,2.7918,2.7923,2.7944,2.798,2.7999,2.8014,2.8023,2.8052,2.8085,2.8059,2.8068,2.8051,2.8078,2.815,2.8047,2.8047,2.8066,2.8224,2.8245,2.8259,2.8133,2.8135,2.8137,2.8223,0,2.7982,2.8044,2.8026,2.8088,2.8114,2.8079,2.811,2.8117,2.8111,2.8132,2.8124,2.8148,2.8112,2.8117,2.8143,2.8136,2.8181,2.8129,2.8159,2.8161,2.8159,2.8274,2.8296,2.8378,2.8234,2.8236,2.8237,0,2.8091,2.8106,2.8171,2.8172,2.8182,2.8211,2.8227,2.8247,2.8253,2.8247,2.8257,2.8235,2.827,2.8226,2.8273,2.8238,2.8249,2.8248,2.825,2.8252,2.8204,2.8279,2.8404,2.8416,2.8255,2.8253,2.8252,0,2.8175,2.8212,2.8255,2.8262,2.8264,2.8285,2.8286,2.829,2.8303,2.8316,2.8324,2.8342,2.8351,2.8365,2.8348,2.8318,2.8398,2.8352,2.8393,2.8394,2.8412,2.8411,2.854,2.8419,2.8418,2.8418,2.8418,0,2.8273,2.8314,2.8293,2.832,2.8365,2.8344,2.8388,2.8386,2.839,2.8415,2.8386,2.841,2.8386,2.8408,2.8395,2.8436,2.844,2.8436,2.8432,2.8439,2.844,2.8446,2.844,2.8421,2.8421,2.842,2.8419,0,2.8375,2.8363,2.8408,2.8407,2.8407,2.8441,2.8439,2.8464,2.8456,2.8488,2.8494,2.8482,2.8506,2.8491,2.8515,2.8507,2.856,2.8548,2.8559,2.8556,2.8598,2.8594,2.8736,2.8753,2.862,2.8622,2.8623,0,2.8438,2.8469,2.8472,2.8487,2.8491,2.8516,2.8529,2.8509,2.8524,2.8533,2.8557,2.8579,2.8595,2.8636,2.8628,2.8647,2.8635,2.8684,2.8638,2.8644,2.8636,2.8635,2.8638,2.8693,2.8695,2.8696,2.8697,0,2.8552,2.8545,2.8565,2.8584,2.8601,2.8614,2.8625,2.8639,2.8619,2.8637,2.8662,2.8675,2.87,2.8723,2.8738,2.8739,2.8715,2.8711,2.8722,2.8729,2.8734,2.8733,2.8584,2.8708,2.8707,2.8706,2.8706,2.8705,2.8637,2.8663,2.8669,2.8693,2.8699,2.871,2.8733,2.8729,2.875,2.8769,2.8756,2.8786,2.8791,2.881,2.8814,2.8836,2.8817,2.8832,2.8836,2.884,2.8846,2.8731,2.8839,2.8839,2.8838,2.8838,2.8838,0,2.8749,2.8751,2.8774,2.8791,2.8809,2.8786,2.8797,2.8814,2.8841,2.8848,2.8865,2.8894,2.8916,2.8911,2.893,2.8949,2.8938,2.8955,2.8953,2.8954,2.8862,2.8852,2.8963,2.8963,2.8963,2.8963,2.8963,2.8963,2.881,2.8853,2.8846,2.8892,2.8894,2.8924,2.8932,2.8942,2.8948,2.8982,2.9,2.8997,2.8999,2.9018,2.9037,2.9035,2.9043,2.9064,2.9058,2.8973,2.896,2.8949,2.8938,2.9066,2.9066,2.9148,2.9148,2.9149]}]]